MSG 4 DEB (BAFFLE COVER), 40990

Orbit data source: Space-Track

MSG 4 DEB (BAFFLE COVER), 40990 is space debris in GEO originally from a launch on Wed, 15 Jul 2015 UTC launched from the French Guiana (FRGUI). Debris objects in space refer to the collection of defunct objects orbiting the Earth. Examples of debris include non-operational satellites, rocket bodies, and fragments generated from explosions, collisions, or faulty payload assembly.

Not visible in the next 10 days
Identifier
40990, 2015-034F
Orbit
GEO
Country
Flag of DEDE / EUME
Related business
Manufacturer
SENER
Mission
Spacecraft
Bus & Motor
MSG COVER, Unknown motor
Mass
~0 kg wet, ~10 kg dry
Launch date (UTC)
2015-07-15 (11 years ago)
Launch vehicle
Unknown
Launch site
French Guiana (FRGUI)
Object type
Payload
Rocket body
Debris
Shape & HBR
Cyl, 0.8 m
Radar Cross Section
1.552 m²

Expand to show TLE details & history
Last TLE update: 2 months ago

TLE from 2 months ago
0 MSG 4 DEB (BAFFLE COVER)
1 40990U 15034F   26057.62012871 -.00000188  00000-0  00000+0 0  9999
2 40990   6.7437  80.4620 0098763 192.6237 167.2594  1.02662052 39767
Epoch: 2026-02-26T14:52Z
TLE epoch observation values (Epoch: 2026-02-26T14:52:59.120Z)
Latitude
0.00001°
Longitude
60.90073°
Altitude
35,527.959 km
Speed
3.069 km/s
True Right ascension
05h 22m 27s
True Declination
0° 00' 00"
Sunlit
Object was in daylight at epoch
Visualization orbit readout
Latitude
Unknown
Longitude
Unknown
Altitude
Unknown
Speed
Unknown
Apparent Right ascension
Unknown
Apparent Declination
Unknown
Sunlit
N/A
Visualization observer readout
Local Sidereal Time
04:45:41
Azimuth
Unknown
Elevation
Unknown
Doppler factor
Unknown
Orbital elements
Apogee altitude
35,540.569 km
Perigee altitude
34,720.663 km
Semi-major axis
41,508.753 km
Eccentricity
0.00988
Inclination
6.7437°
RAAN
80.462°
Arg. of periapsis
192.6237°
True anomaly
167.50602°
Mean anomaly
167.2594°
Eccentric anomaly
167.383°
Mean motion
0.25665 °/min
Orbital period
1,402.71 mins
BSTAR
0
Loading maneuver chart data...
Computing Atmospheric mass density...
Loading historical data...
Loading historical data...
Loading historical data...
Loading historical data...
Loading historical data...
Loading historical data...
Loading historical data...

Documentation

Showing up to 5 results
|